Regional Weather Roundup
Issued by NWS

Home | Current Version | Previous Version | Text Only | Print | Product List | Glossary Off
Versions: 1 2 3 4 5 6 7 8 9 10 11 12 13 14 15 16 17 18 19 20 21 22 23 24 25 26 27 28 29 30 31 32 33 34 35 36 37 38 39 40 41 42 43 44 45 46 47 48 49 50

556
ASUS43 KIND 211409
RWRIN

WEATHER ROUNDUP FOR INDIANA
NATIONAL WEATHER SERVICE INDIANAPOLIS IN
900 AM EST SAT JAN 21 2017

NOTE: "FAIR" INDICATES FEW OR NO CLOUDS BELOW 12,000 FEET WITH NO
SIGNIFICANT WEATHER AND/OR OBSTRUCTIONS TO VISIBILITY.

* - STATION DOES NOT REPORT WEATHER SUCH AS PRECIPITATION OR FOG.

+ - STATION NOT QUALITY CONTROLLED BY THE NATIONAL WEATHER SERVICE.
    USE DATA WITH CAUTION...ESPECIALLY DEWPOINT AND RELATIVE
    HUMIDITY OBSERVATIONS.

INZ001>003-010>013-019-020-211500-
NORTHWEST INDIANA

CITY           SKY/WX    TMP DP  RH WIND       PRES   REMARKS
GARY /AIRPORT/ FOG       50  48  93 S12       29.55F VSB 1
KNOX *+        PTCLDY    46  41  81 SE10      29.58F
LA PORTE +     CLOUDY    48  48  99 SE7       29.58F FOG
MICHIGAN CITY+ CLOUDY    50  50 100 S10G17    29.57F FOG
MONTICELLO +   PTCLDY    47  46  95 SE7       29.59F FOG
RENSSELAER +   CLEAR     46  46 100 SE9       29.57F FOG
VALPARAISO     CLOUDY    50  49  96 SE8       29.57F FOG

$$

LMZ046-743>745-211500-
SOUTHERN LAKE MICHIGAN

STATION/POSITION TIME  TEMP    WIND        PRES    WAVE
                       AIR SEA DIR/SP/G            HT
                 (UTC) (F)     (DEG/KT/KT) (MB)    (FT)
BURNS HARBOR     1340   50     170/ 11/ 17 1001.7F

$$

INZ004-005-014>016-021>024-211500-
NORTH CENTRAL INDIANA

CITY           SKY/WX    TMP DP  RH WIND       PRES   REMARKS
ELKHART        MOCLDY    48  46  93 S6        29.61F FOG
GOSHEN         CLOUDY    49  46  90 SE8       29.61F FOG
LOGANSPORT +   CLEAR     45  45 100 SE8       29.62S FOG
PERU/GRISSOM   PTCLDY    47  47 100 S9        29.61S
ROCHESTER +    PTCLDY    46  46 100 S3        29.62S FOG
SOUTH BEND     CLOUDY    49  48  97 S9        29.60F FOG
WARSAW +       CLEAR     48  46  93 S6        29.62F FOG

$$

INZ006>009-017-018-025>027-211500-
NORTHEAST INDIANA

CITY           SKY/WX    TMP DP  RH WIND       PRES   REMARKS
ANGOLA *+      CLOUDY    48  48 100 S5        29.63F VSB 0
AUBURN +       CLEAR     46  45  93 CALM      29.65F FOG
FORT WAYNE     CLOUDY    46  43  89 SE7       29.65F FOG
HUNTINGTON +   CLEAR     46  45  95 SE5       29.64S FOG
KENDALLVILLE + CLOUDY    47  47 100 S8        29.64F FOG

$$

INZ028-029-035-036-043>045-051>053-211500-
WEST CENTRAL INDIANA

CITY           SKY/WX    TMP DP  RH WIND       PRES   REMARKS
CRAWFORDSVL +  CLOUDY    46  46 100 SE9       29.62R FOG
GREENCASTLE +  CLOUDY    45  45 100 S6        29.64R FOG
LAFAYETTE      PTCLDY    47  47 100 SE3       29.60S FOG
TERRE HAUTE    CLOUDY    49  47  93 S8        29.63R FOG

$$

INZ030>032-037>040-046>048-054>057-064-065-211500-
CENTRAL INDIANA

CITY           SKY/WX    TMP DP  RH WIND       PRES   REMARKS
ANDERSON       CLEAR     50  48  93 S6        29.65
CP ATTERBURY + CLOUDY    50  48  93 S3        29.68R FOG
COLUMBUS       CLEAR     48  48 100 S7        29.69R
FRANKFORT +    PTCLDY    51  50  95 S6        29.63S FOG
GREENWOOD *+   CLOUDY    48  48 100 SE7       29.67R VSB 1/4
INDIANAPOLIS   MOCLDY    48  47  96 SE8       29.65R FOG
-EAGLE CREEK   PTCLDY    48  47  96 SE5       29.64R FOG
KOKOMO +       CLEAR     47  46  97 S9        29.63F FOG
MARION +       CLEAR     46  46 100 SE6       29.65R FOG
MT COMFORT *+  CLOUDY    48  46  93 S8        29.66R
SHELBYVILLE    PTCLDY    51  47  86 S12       29.67R
ZIONSVILLE +   PTCLDY    47  47  99 S6        29.64R FOG

$$

INZ033-034-041-042-049-050-058-059-211500-
EAST CENTRAL INDIANA

CITY           SKY/WX    TMP DP  RH WIND       PRES   REMARKS
MUNCIE         CLOUDY    51  48  89 S7        29.65F

$$

INZ060-061-067>069-081>083-085>088-211500-
SOUTHWEST INDIANA

CITY           SKY/WX    TMP DP  RH WIND       PRES   REMARKS
EVANSVILLE     CLOUDY    49  47  93 SE5       29.67R FOG
HUNTINGBURG *+ CLOUDY    54  51  90 S6        29.67S
WASHINGTON +   CLOUDY   N/A N/A N/A S9        29.65S

$$

INZ062-063-066-070>080-084-089>092-211500-
SOUTH CENTRAL AND SOUTHEAST INDIANA

CITY           SKY/WX    TMP DP  RH WIND       PRES   REMARKS
BLOOMINGTON    PTCLDY    50  47  89 SE9       29.66R FOG
MADISON *+     MOSUNNY   52  48  87 SE7       29.71F
NORTH VERNON + MOCLDY   N/A N/A N/A S7        29.69R
SEYMOUR +      CLOUDY    52  50  93 SE6       29.68S

$$





USA.gov is the U.S. government's official web portal to all federal, state and local government web resources and services.